STARLINK-31350, 58933

Orbit data source: Space-Track

STARLINK-31350, 58933 is a payload satellite owned by SpaceX/Seattle (US) in LEO that was launched on Sat, 10 Feb 2024 UTC via an FALCON 9 launch vehicle from the Air Force Western Test Range (AFWTR). Payload-class satellites include a variety of spacecraft equipped with specific instruments for various scientific and technological missions. These include communications satellites like Starlink; space stations such as the ISS; scientific satellites like the Hubble; Earth observation satellites from companies like Planet Labs, Umbra, and HawkEye 360; GPS; miniature CubeSats for education and research; and military/defense satellites.

Loading next visibility...
Identifier
58933, 2024-027C
Orbit
LEO
Country
Flag of USUS
Related business
Manufacturer
SpaceX/Seattle
Mission
Operational Commercial Communications
Bus & Motor
STARLINK V2M, Unknown motor
Mass
730 kg wet, ~700 kg dry
Launch date (UTC)
2024-02-10 (2 years ago)
Launch vehicle
FALCON 9
Launch site
Air Force Western Test Range (AFWTR)
Object type
Payload
Rocket body
Debris
Shape & HBR
Box + 2 Pan, 17.7 m
Radar Cross Section
33.884 m², Large (>1 m²)

Expand to show TLE details & history
Last TLE update: 2 days ago

TLE from 2 days ago
0 STARLINK-31350
1 58933U 24027C   26171.38258830  .00000420  00000-0  26321-4 0  9991
2 58933  53.1586 192.4417 0001092  80.1577 279.9547 15.30193627133058
Epoch: 2026-06-20T09:10Z
TLE epoch observation values (Epoch: 2026-06-20T09:10:55.629Z)
Latitude
-0°
Longitude
146.1119°
Altitude
476.004 km
Speed
7.629 km/s
True Right ascension
12h 49m 46s
True Declination
0° 00' 00"
Sunlit
Object was in daylight at epoch
Visualization orbit readout
Latitude
Unknown
Longitude
Unknown
Altitude
Unknown
Speed
Unknown
Apparent Right ascension
Unknown
Apparent Declination
Unknown
Sunlit
N/A
Visualization observer readout
Local Sidereal Time
21:30:05
Azimuth
Unknown
Elevation
Unknown
Doppler factor
Unknown
Orbital elements
Apogee altitude
476.239 km
Perigee altitude
474.742 km
Semi-major axis
6,853.628 km
Eccentricity
0.00011
Inclination
53.1586°
RAAN
192.4417°
Arg. of periapsis
80.1577°
True anomaly
279.94237°
Mean anomaly
279.9547°
Eccentric anomaly
279.94854°
Mean motion
3.82527 °/min
Orbital period
94.11 mins
BSTAR
0.000026321
Loading maneuver chart data...
Computing Atmospheric mass density...
Loading historical data...
Loading historical data...
Loading historical data...
Loading historical data...
Loading historical data...
Loading historical data...
Loading historical data...

Documentation

Showing up to 5 results
|